User: anonymous   Login
Location: Unspecified
(0.0000°N, 0.0000°E)
Time: 15:03:19
(UTC+01:00)
Language:

Resurs 1-3 - Orbit

View from above orbital plane
View from above orbital plane
View from above satellite
View from above satellite

Ground track
Ground track

The orbit data is extracted from the following two-line orbital elements,

1 23342U 94074A   14304.11298902  .00000676  00000-0  99849-4 0  3392
2 23342 098.1635 316.2246 0000901 084.4762 316.0941 14.78551160 75872
Epoch (UTC): 31 October 2014 02:42:42
Eccentricity: 0.0000901
inclination: 98.1635°
perigee height: 633 km
apogee height: 634 km
right ascension of ascending node: 316.2246°
argument of perigee: 84.4762°
revolutions per day: 14.78551160
mean anomaly at epoch: 316.0941°
orbit number at epoch: 7587

The dashed part of the orbit path shows where the satellite is in the earth's shadow,  

DLR